HJ3GNC-12 Weather Reports


time (UTC)temp
F
wind
direction
speed
knots
gust
knots
rain 1hr
in
rain 24hr
in
rain mn
in
humidity
%
barometer
mb
20260504223050 61 120 0.0 0.0 0.00 0.00 0.00 72 1015.0
20260504205623 62 127 0.0 0.0 0.00 0.00 0.00 68 1014.0
20260504204030 62 127 0.0 0.0 0.00 0.00 0.00 68 1014.0
20260504202445 62 125 0.0 0.0 0.00 0.00 0.00 68 1014.0
20260504200833 62 125 0.0 0.0 0.00 0.00 0.00 68 1014.0
20260504195249 62 125 0.0 0.0 0.00 0.00 0.00 68 1014.0
20260504193707 64 125 0.0 0.0 0.00 0.00 0.00 68 1014.0
20260504192127 64 0 0.0 0.0 0.00 0.00 0.00 68 1014.0
20260504190537 64 0 0.0 0.0 0.00 0.00 0.00 67 1014.0
20260504184956 64 150 0.0 0.0 0.00 0.00 0.00 67 1014.0
20260504183412 64 150 0.0 0.0 0.00 0.00 0.00 68 1014.0
20260504181831 64 150 0.0 0.0 0.00 0.00 0.00 69 1015.0
20260504180248 64 120 0.0 0.0 0.00 0.00 0.00 70 1015.0
20260504174705 64 120 0.0 0.0 0.00 0.00 0.00 72 1015.0
20260504173120 64 120 0.0 0.0 0.00 0.00 0.00 75 1015.0
20260504171538 64 120 0.0 0.0 0.00 0.00 0.00 79 1016.0
20260504141151 56 0 0.0 0.0 0.00 0.00 0.00 99 1017.0
20260504100426 52 0 0.0 0.0 0.00 0.00 0.00 99 1018.0
20260504081319 53 20 0.0 0.0 0.00 0.00 0.00 99 1018.0
20260504035842 55 340 0.0 0.0 0.00 0.00 0.00 99 1020.0
20260504034249 56 340 0.0 0.0 0.00 0.00 0.00 99 1020.0
20260504032701 56 340 0.0 0.0 0.00 0.00 0.00 98 1020.0
20260504031115 56 340 0.0 0.0 0.00 0.00 0.00 98 1020.0
20260504025511 56 0 0.0 0.0 0.00 0.00 0.00 98 1020.0
20260504023852 56 0 0.0 0.0 0.00 0.00 0.00 98 1020.0
20260504020658 56 0 0.0 0.0 0.00 0.00 0.00 97 1019.0
20260504015107 56 0 0.0 0.0 0.00 0.00 0.00 97 1019.0
20260504013501 57 0 0.0 0.0 0.00 0.00 0.00 94 1019.0
20260504011836 57 0 0.0 0.0 0.00 0.00 0.00 93 1018.0
20260503225113 60 145 0.0 0.0 0.00 0.00 0.00 77 1016.0